Simultaneous Nadir Overpasses (SNOs) Predictions

Prediction of SNOs between NOAA-20 and METOP-C Satellite Orbit:

Table of predicted SNOs for the next 14.0 days since TLE Epoch: 3/5/2021
Index Date (NOAA-20) Time (NOAA-20) Lat,Lon (NOAA-20) SZA (NOAA-20 ) Date (METOP-C) Time (METOP-C) Lat,Lon (METOP-C) SZA (METOP-C ) Distance(km) Time Diff (sec)
1 03/18/2021 20:05:17 73.41,-130.93 74.28 03/18/2021 20:06:23 73.32,-128.07 74.03 91.63 66
2 03/18/2021 20:55:59 -73.30, 36.63 105.86 03/18/2021 20:57:07 -73.22, 39.03 106.08 77.32 68
3 03/18/2021 21:46:39 73.06,-155.54 73.87 03/18/2021 21:47:49 73.05,-154.01 73.76 49.72 70
4 03/18/2021 22:37:22 -73.00, 11.91 106.22 03/18/2021 22:38:33 -72.95, 13.10 106.35 39.51 71
5 03/18/2021 23:28:04 72.82, 179.61 73.57 03/18/2021 23:29:17 72.72, 179.97 73.44 15.82 73
6 03/19/2021 00:18:46 -72.71, -12.84 106.57 03/19/2021 00:20:00 -72.67, -12.81 106.62 3.99 74
7 03/19/2021 01:09:31 72.67, 154.54 73.38 03/19/2021 01:10:40 72.65, 154.48 73.35 3.10 69
8 03/19/2021 02:00:15 -72.66, -38.13 106.65 03/19/2021 02:01:22 -72.65, -38.19 106.67 2.50 67
9 03/19/2021 02:51:01 72.68, 129.15 73.36 03/19/2021 02:52:01 72.68, 129.20 73.35 1.59 60



Historial Predications of SNOs between NOAA-20 and METOP-C
